Location: Unspecified
(10.5000°N, 0.0000°E)
Time: 23:18:14
(UTC+00:00)

Envisat - Pass Details

Date: 25 June 2019
Orbit: 764 x 766 km, 98.1° (Epoch: 19 July)

Event Time Altitude Azimuth Distance (km) Brightness Sun altitude
Rises 19:42:34 0° 201° (SSW) 3,224 6.2 -18.0°
Reaches altitude 10° 19:45:40 10° 221° (SW) 2,298 5.6 -18.6°
Maximum altitude 19:48:49 17° 260° (W) 1,876 5.6 -19.3°
Drops below altitude 10° 19:51:59 10° 299° (WNW) 2,297 6.7 -20.0°
Sets 19:55:07 0° 320° (NW) 3,222 7.5 -20.7°
